Regional Weather Roundup
Issued by NWS

Home | Current Version | Previous Version | Graphics & Text | Print | Product List | Glossary Off
Versions: 1 2 3 4 5 6 7 8 9 10 11 12 13 14 15 16 17 18 19 20 21 22 23 24 25 26 27 28 29 30 31 32 33 34 35 36 37 38 39 40 41 42 43 44 45 46 47 48 49 50

000
ASUS43 KLOT 070500
RWRIL

ILLINOIS REGIONAL WEATHER ROUNDUP
NATIONAL WEATHER SERVICE CHICAGO/ROMEOVILLE IL
1100 PM CST FRI MAR 06 2015

NOTE: "FAIR" INDICATES FEW OR NO CLOUDS BELOW 12,000 FEET WITH NO
SIGNIFICANT WEATHER AND/OR OBSTRUCTIONS TO VISIBILITY.

* THESE STATIONS ARE NOT UNDER NWS QUALITY CONTROL. THEY ALSO MAY NOT
  REPORT WEATHER SUCH AS PRECIPITATION OR FOG.

ILZ001-002-007-009-015-016-024-070600-
NORTHWEST ILLINOIS

CITY           SKY/WX    TMP DP  RH WIND       PRES   REMARKS
MOLINE         CLOUDY    39  27  62 SW9       30.09S WCI  33
STERLING*      MOCLDY    28  21  74 S3        30.10F
$$

ILZ003-004-008-010-011-017-018-070600-
NORTH CENTRAL ILLINOIS

CITY           SKY/WX    TMP DP  RH WIND       PRES   REMARKS
ROCKFORD       MOCLDY    23  17  78 S7        30.11F WCI  15
$$

ILZ005-006-012>014-019>023-070600-
NORTHEAST ILLINOIS

CITY           SKY/WX    TMP DP  RH WIND       PRES   REMARKS
CHICAGO-OHARE  MOCLDY    25  17  72 SW10      30.13F WCI  15
CHICAGO-MIDWAY CLOUDY    25  16  68 S10       30.16F WCI  15
AURORA         FAIR      22  15  75 S7        30.14F WCI  13
WAUKEGAN       MOCLDY    23  18  81 SW9       30.11F WCI  13
DUPAGE AIRPORT FAIR      21  16  81 S12       30.13F WCI   9
WHEELING       PTCLDY    26  17  68 S9        30.14F WCI  17
NORTHERLY ISL    N/A     25  16  68 SW9         N/A  WCI  16
$$

LMZ740>746-070600-
SOUTHERN LAKE MICHIGAN

STATION/POSITION SKY/WX   TEMP    WIND        PRES    VSBY  WAVE
                          AIR SEA DIR/SP/G                  HT/PER
                          (F)     (DEG/KT/KT) (MB)    (MI)  (FT/S)
WAUKEGAN HARBOR            26                   N/A
HARRISON CRIB              26     210/ 28/ 35   N/A
BURNHAM HARBOR             25     220/  4/ 12   N/A
CALUMET HARBOR             25     200/ 10/ 13 1020.3F
MICHIGAN CITY              24     180/ 16/ 21   N/A
$$

ILZ025>027-034>036-040-047-049-050-058-095>099-070600-
WEST-CENTRAL ILLINOIS

CITY           SKY/WX    TMP DP  RH WIND       PRES   REMARKS
QUINCY         CLEAR     42  29  59 SW15      30.19F
$$

ILZ028>032-037-038-041>044-048-051>054-059>061-070600-
CENTRAL ILLINOIS

CITY           SKY/WX    TMP DP  RH WIND       PRES   REMARKS
DECATUR        CLEAR     27  18  69 SW18      30.25F WCI  14
PEORIA         CLEAR     28  21  75 S13       30.18F WCI  17
SPRINGFIELD    CLEAR     31  21  66 S20       30.23F WCI  19
TAYLORVILLE    NOT AVBL
$$

ILZ033-039-045-046-055>057-062-063-070600-
EAST-CENTRAL ILLINOIS

CITY           SKY/WX    TMP DP  RH WIND       PRES   REMARKS
CHAMPAIGN      MOCLDY    23  16  74 S20       30.24F WCI   8
RANTOUL*       MOCLDY    25  18  74 S10       30.24F WCI  15
MATTOON        CLEAR     25  14  63 S15G23    30.27F WCI  13
$$

ILZ079-100>102-070600-
SOUTHWEST ILLINOIS

CITY           SKY/WX    TMP DP  RH WIND       PRES   REMARKS
BELLEVILLE     CLEAR     29  22  73 VRB3      30.32F
CAHOKIA*       CLEAR     37  22  54 SW7       30.32F WCI  32
$$

ILZ064>066-069>071-074>076-080>082-084>086-088>090-092>094-070600-
SOUTH-CENTRAL ILLINOIS

CITY           SKY/WX    TMP DP  RH WIND       PRES   REMARKS
CARBONDALE     CLEAR     26  15  63 SW12      30.39F WCI  16
MT. VERNON     CLEAR     27  16  63 SW14      30.36F WCI  15
$$

ILZ067-068-072-073-078-083-087-091-070600-
SOUTHEAST ILLINOIS

CITY           SKY/WX    TMP DP  RH WIND       PRES   REMARKS
LAWRENCEVILLE  CLEAR     24  14  65 SW10      30.37S WCI  14
ROBINSON*      CLEAR     24  15  66 SW8       30.36F WCI  16
$$

ABBREVIATIONS USED IN REMARKS
   TC - TEMPERATURE IN CELSIUS
  WCI - WIND CHILL INDEX
   HX - HEAT INDEX
  VSB - VISIBILITY
$$



USA.gov is the U.S. government's official web portal to all federal, state and local government web resources and services.